[[{"header":{"parameterUnit":"m.s-1","parameterCategory":1,"la1":30.2991,"la2":30.254,"lo1":-89.0895,"lo2":-89.0444,"dy":0.0017,"dx":0.0017,"nx":28,"ny":28,"refTime":"2024-11-26T03:00:00:Z","depth":0,"parameterNumber":2,"parameterNumberName":"U-component_of_WINDS"},"data":[0,0,0,0,0,0,0,0,0,0,0,0,0,0,0,0,0,0,0,0,0,0,0,0,0,0,0,0,0,0,0,0,0,0,0,0,0,0,0,0,0,0,0,0,0,0,0,0,0,0,0,0,0,0,0,0,0,0,0.5353,0.5353,0,0.5326,0.5325,0.5325,0.5276,0.5275,0.5274,0.5273,0.5245,0.5246,0.5246,0,0,0,0,0,0,0,0,0,0,0,0,0,0.5363,0.5363,0.5353,0.5353,0.5353,0.5326,0.5325,0.5325,0.5276,0.5275,0.5274,0.5272,0.5245,0.5246,0.5246,0,0,0,0,0,0,0,0,0,0,0,0,0,0.535,0.5364,0.5353,0.5325,0.5322,0.5326,0.5325,0.5325,0.5276,0.5275,0.5273,0.5272,0.5245,0.5246,0.5246,0.5275,0,0,0.5247,0.5247,0,0,0,0,0,0,0,0,0.5351,0.5349,0.5329,0.5327,0.5324,0.5303,0.5319,0.5308,0.5276,0.5294,0.5273,0.5271,0.5266,0.5264,0.5262,0.5274,0.5273,0.5247,0.5247,0.5247,0.5247,0,0,0,0,0,0,0,0.5352,0.535,0.5342,0.5329,0.5326,0.5313,0.531,0.5317,0.5288,0.5292,0.5288,0.5286,0.5264,0.5262,0.5261,0.5273,0.5247,0.5247,0.5247,0.5247,0.5306,0.5308,0,0,0,0,0,0,0.5357,0.5352,0.5343,0.5342,0.5334,0.5314,0.531,0.5311,0.5288,0.5283,0.5287,0.5283,0.5262,0.5261,0.526,0.5292,0.5247,0.5247,0.5247,0.5305,0.5307,0.5308,0,0,0,0,0,0,0.5357,0.5356,0.5344,0.5346,0.5343,0.5316,0.5317,0.5311,0.5309,0.5284,0.5279,0.529,0.5261,0.526,0.5272,0.5291,0.5247,0.5247,0.5303,0.5305,0.5307,0.5358,0,0,0,0,0,0,0.5358,0.5357,0.5368,0.5346,0.5343,0.5357,0.5318,0.5312,0.531,0.5305,0.5286,0.5281,0.526,0.5272,0.5272,0.529,0.5247,0.5301,0.5304,0.5307,0.5355,0.5362,0.5368,0,0,0,0,0,0.5358,0.5384,0.5369,0.5368,0.5356,0.5358,0.5356,0.5331,0.5311,0.5322,0.5306,0.5282,0.5289,0.5273,0.5273,0.5292,0.53,0.5303,0.5307,0.5352,0.536,0.5368,0,0,0,0,0,0,0.5409,0.538,0.5364,0.5383,0.5373,0.535,0.5363,0.5341,0.5337,0.5333,0.5302,0.5298,0.5314,0.5304,0.5288,0.5319,0.529,0.5294,0.5325,0.5333,0.5339,0.5341,0.5248,0,0,0,0,0,0.5423,0.5426,0.5401,0.542,0.5416,0.539,0.539,0.5371,0.536,0.5356,0.5341,0.5331,0.533,0.5331,0.533,0.5353,0.5348,0.5366,0.5372,0.5378,0.5381,0.5392,0.5399,0.5319,0.5319,0.5319,0,0,0.5451,0.5435,0.544,0.543,0.542,0.5425,0.5387,0.5394,0.5396,0.5357,0.5367,0.5355,0.5342,0.536,0.5367,0.5352,0.5402,0.5382,0.5386,0.5387,0.5396,0.5403,0.541,0.5321,0.5321,0.532,0,0,0.5504,0.5493,0.5507,0.5498,0.5483,0.5466,0.5469,0.5449,0.5439,0.5449,0.5419,0.5422,0.5422,0.5414,0.541,0.5458,0.5436,0.5459,0.5493,0.5504,0.5511,0.5516,0.5533,0.5539,0.5462,0.5462,0.5462,0,0.554,0.5545,0.5517,0.5525,0.5522,0.5486,0.55,0.5492,0.5478,0.5477,0.546,0.5459,0.5448,0.5463,0.5474,0.5472,0.5475,0.5461,0.5512,0.5517,0.5522,0.5537,0.5544,0.5465,0.5465,0.5465,0.5464,0,0.5591,0.5595,0.5608,0.5595,0.5593,0.5604,0.5577,0.5579,0.556,0.5544,0.5554,0.5539,0.5533,0.5535,0.5518,0.5547,0.5538,0.5517,0.5488,0.5533,0.5547,0.5553,0.5469,0.5468,0.5467,0.5467,0,0,0.5676,0.5646,0.5651,0.5644,0.5625,0.5628,0.5637,0.5631,0.5632,0.5623,0.563,0.5631,0.5611,0.5606,0.5587,0.5597,0.5635,0.5574,0.5573,0.5586,0.5666,0.5682,0.5689,0.562,0.5621,0.5622,0.5667,0,0.5724,0.5738,0.5712,0.5732,0.5735,0.57,0.5708,0.5697,0.5682,0.5683,0.5666,0.5667,0.5641,0.5638,0.5646,0.5629,0.5651,0.5625,0.5626,0.5626,0.563,0.5697,0.5714,0.5757,0.5672,0.5673,0.5674,0,0.5783,0.5776,0.5796,0.5775,0.5775,0.5782,0.5774,0.5775,0.5762,0.575,0.5744,0.5721,0.5729,0.5701,0.571,0.5693,0.5692,0.5683,0.5684,0.5683,0.5653,0.5697,0.577,0.5777,0.5683,0.5682,0.5681,0,0.5842,0.5838,0.5849,0.5844,0.582,0.5826,0.5816,0.5801,0.5799,0.5792,0.579,0.5784,0.5781,0.5777,0.5753,0.5735,0.5765,0.5735,0.5756,0.5756,0.5763,0.5763,0.5837,0.5763,0.5763,0.5763,0.5763,0,0.5898,0.5912,0.5875,0.5882,0.5895,0.5866,0.5881,0.5867,0.5854,0.5858,0.5828,0.5832,0.58,0.58,0.5782,0.5792,0.5791,0.5781,0.5776,0.5784,0.5785,0.5783,0.5779,0.5765,0.5764,0.5764,0.5764,0,0.5966,0.5943,0.5952,0.5928,0.5922,0.5933,0.5913,0.5918,0.5901,0.5906,0.5905,0.5879,0.5877,0.5853,0.5847,0.5834,0.5852,0.5841,0.5856,0.5853,0.5874,0.5872,0.5949,0.5957,0.5879,0.5879,0.588,0,0.6004,0.6013,0.599,0.599,0.5981,0.5982,0.5979,0.595,0.5949,0.5934,0.5941,0.5937,0.5932,0.5932,0.5912,0.5907,0.5896,0.5923,0.5895,0.5902,0.5896,0.5896,0.5896,0.5929,0.593,0.5931,0.5932,0,0.6073,0.606,0.6057,0.605,0.6047,0.6041,0.6032,0.6034,0.6002,0.6002,0.6,0.5996,0.599,0.5986,0.5977,0.5967,0.5944,0.594,0.5945,0.5953,0.5961,0.5956,0.5872,0.5939,0.5938,0.5938,0.5937,0.5937,0.6126,0.6132,0.6117,0.6114,0.6104,0.6097,0.61,0.6083,0.6081,0.6073,0.6056,0.6057,0.6043,0.6028,0.602,0.602,0.6006,0.6013,0.6014,0.6016,0.602,0.5961,0.6019,0.6018,0.6018,0.6018,0.6018,0,0.6193,0.6181,0.6179,0.6167,0.6165,0.6143,0.6132,0.6132,0.6133,0.6121,0.6117,0.6115,0.6111,0.6091,0.6085,0.6089,0.6078,0.6088,0.6087,0.6085,0.6033,0.603,0.6097,0.6097,0.6097,0.6097,0.6097,0.6097,0.6227,0.6236,0.6222,0.6226,0.6214,0.6214,0.6209,0.6202,0.6192,0.6191,0.6188,0.6174,0.6159,0.6152,0.6147,0.6141,0.614,0.6154,0.6145,0.6097,0.6089,0.6082,0.6078,0.6154,0.6154,0.6196,0.6197,0.6197]},{"header":{"parameterUnit":"m.s-1","parameterCategory":1,"la1":30.2991,"la2":30.254,"lo1":-89.0895,"lo2":-89.0444,"dy":0.0017,"dx":0.0017,"nx":28,"ny":28,"refTime":"2024-11-26T03:00:00:Z","depth":0,"parameterNumber":3,"parameterNumberName":"V-component_of_WINDS"},"data":[0,0,0,0,0,0,0,0,0,0,0,0,0,0,0,0,0,0,0,0,0,0,0,0,0,0,0,0,0,0,0,0,0,0,0,0,0,0,0,0,0,0,0,0,0,0,0,0,0,0,0,0,0,0,0,0,0,0,4.8347,4.8348,0,4.8395,4.8395,4.8396,4.8354,4.8353,4.8351,4.8349,4.8392,4.8395,4.8397,0,0,0,0,0,0,0,0,0,0,0,0,0,4.8216,4.8218,4.8347,4.8348,4.8349,4.8395,4.8395,4.8396,4.8355,4.8353,4.835,4.8349,4.8391,4.8394,4.8398,0,0,0,0,0,0,0,0,0,0,0,0,0,4.8269,4.8219,4.8347,4.8334,4.8333,4.8394,4.8395,4.8396,4.8355,4.8352,4.835,4.8348,4.839,4.8394,4.8398,4.8474,0,0,4.841,4.8412,0,0,0,0,0,0,0,0,4.8266,4.8274,4.8335,4.8335,4.8334,4.8366,4.8364,4.8422,4.8356,4.8346,4.8349,4.8346,4.8385,4.8389,4.8404,4.8476,4.8478,4.8411,4.8413,4.8415,4.8416,0,0,0,0,0,0,0,4.8262,4.8271,4.8366,4.8336,4.8335,4.8323,4.8328,4.8375,4.8379,4.8347,4.8344,4.8351,4.8384,4.84,4.8404,4.8478,4.8411,4.8414,4.8417,4.8418,4.8615,4.8617,0,0,0,0,0,0,4.8261,4.8269,4.8364,4.8367,4.8293,4.8328,4.8333,4.8358,4.8379,4.8379,4.8353,4.8349,4.8394,4.84,4.8406,4.8496,4.8415,4.8419,4.8421,4.8612,4.8615,4.8618,0,0,0,0,0,0,4.8258,4.827,4.8362,4.8317,4.8328,4.8333,4.8361,4.836,4.8376,4.8383,4.8383,4.8368,4.8392,4.84,4.8458,4.8497,4.8421,4.8424,4.8609,4.8613,4.8617,4.8677,0,0,0,0,0,0,4.8254,4.8269,4.8299,4.8318,4.8331,4.8415,4.8364,4.8363,4.8384,4.8379,4.8398,4.8398,4.8391,4.8452,4.8462,4.8501,4.8428,4.8605,4.8611,4.8615,4.8672,4.8683,4.8692,0,0,0,0,0,4.825,4.8313,4.8301,4.8313,4.8369,4.8418,4.8425,4.8417,4.8387,4.8417,4.8421,4.8398,4.8491,4.8458,4.8469,4.851,4.8603,4.8609,4.8615,4.8667,4.8681,4.8692,0,0,0,0,0,0,4.8296,4.8315,4.8302,4.8373,4.8395,4.8411,4.8448,4.8431,4.846,4.8454,4.8441,4.8445,4.8506,4.8513,4.8477,4.8584,4.8542,4.855,4.8578,4.8591,4.8601,4.8598,4.8431,0,0,0,0,0,4.8314,4.8355,4.8368,4.843,4.8441,4.8443,4.8464,4.8456,4.8477,4.8485,4.8493,4.8513,4.8546,4.8569,4.86,4.8672,4.8676,4.8706,4.8716,4.8725,4.8732,4.8771,4.8785,4.8639,4.8639,4.8639,0,0,4.8353,4.8368,4.8394,4.8439,4.8455,4.8495,4.8451,4.8495,4.8524,4.8491,4.8547,4.8554,4.8574,4.864,4.8669,4.8648,4.8774,4.8733,4.874,4.8743,4.8779,4.8793,4.8806,4.8643,4.8642,4.8642,0,0,4.8444,4.846,4.8513,4.853,4.8555,4.8556,4.8569,4.8588,4.8592,4.8648,4.8624,4.8657,4.8716,4.8732,4.8747,4.8845,4.8825,4.8856,4.891,4.8948,4.896,4.897,4.9005,4.9018,4.8863,4.8863,4.8863,0,4.8488,4.8549,4.8542,4.8589,4.8609,4.8583,4.8636,4.8652,4.8685,4.8699,4.8675,4.8749,4.8761,4.883,4.8854,4.8867,4.8881,4.8853,4.8959,4.8969,4.8978,4.9012,4.9025,4.8867,4.8866,4.8866,4.8866,0,4.8602,4.8646,4.8685,4.8721,4.8745,4.8795,4.8794,4.8819,4.8809,4.8812,4.8869,4.8883,4.8917,4.8932,4.8922,4.9,4.8986,4.8961,4.8918,4.8996,4.9027,4.904,4.8872,4.8871,4.887,4.8869,0,0,4.8723,4.8755,4.8769,4.8786,4.8811,4.8844,4.8891,4.8927,4.8949,4.8972,4.9012,4.9062,4.9039,4.9057,4.9048,4.9082,4.9159,4.9052,4.9053,4.9072,4.9246,4.9265,4.928,4.9146,4.9148,4.915,4.9244,0,4.8815,4.8902,4.8896,4.8977,4.9016,4.8992,4.9034,4.9053,4.9057,4.909,4.9093,4.9129,4.9096,4.9107,4.9139,4.9143,4.9194,4.9136,4.9181,4.9183,4.9177,4.9297,4.9317,4.9406,4.9256,4.9258,4.926,0,4.8934,4.8965,4.905,4.9071,4.9087,4.9125,4.9157,4.9189,4.921,4.9211,4.9232,4.9217,4.9264,4.922,4.9284,4.9245,4.9263,4.9268,4.9271,4.9275,4.9226,4.9304,4.9434,4.9447,4.9279,4.9277,4.9276,0,4.9014,4.9076,4.9135,4.915,4.9175,4.9203,4.9214,4.9233,4.9255,4.9282,4.9296,4.9328,4.9345,4.9369,4.9364,4.9332,4.9429,4.9385,4.943,4.943,4.9452,4.945,4.9586,4.9463,4.9463,4.9462,4.9462,0,4.9118,4.9171,4.9172,4.9208,4.9267,4.926,4.9317,4.9325,4.9342,4.9378,4.9358,4.9392,4.9383,4.9416,4.9412,4.9465,4.9473,4.9474,4.9472,4.9476,4.9476,4.9488,4.9482,4.9466,4.9465,4.9464,4.9464,0,4.9217,4.922,4.9283,4.9303,4.9309,4.9352,4.9368,4.9401,4.9404,4.945,4.946,4.9464,4.9502,4.9499,4.9541,4.9538,4.9605,4.9595,4.9599,4.9597,4.9642,4.9638,4.9791,4.981,4.9674,4.9675,4.9676,0,4.9284,4.9324,4.935,4.9374,4.9388,4.9426,4.9449,4.9443,4.9468,4.9496,4.9526,4.9562,4.9592,4.9653,4.9659,4.9691,4.9682,4.9733,4.9687,4.969,4.9683,4.9681,4.9685,4.9743,4.9744,4.9745,4.9746,0,4.9401,4.9401,4.9436,4.9472,4.95,4.9528,4.9552,4.9573,4.9569,4.9597,4.9637,4.966,4.9704,4.9741,4.9772,4.9781,4.9763,4.9761,4.9773,4.9778,4.9778,4.9779,4.9624,4.9758,4.9756,4.9756,4.9755,4.9755,4.9486,4.9522,4.9545,4.9585,4.9604,4.9628,4.9661,4.9668,4.9702,4.974,4.9733,4.9778,4.9798,4.9838,4.9851,4.9885,4.9866,4.9884,4.9888,4.9893,4.9899,4.9773,4.989,4.989,4.989,4.9889,4.9889,0,4.9603,4.9618,4.9654,4.9691,4.9722,4.9705,4.9731,4.9758,4.9798,4.9819,4.9849,4.9895,4.9931,4.994,4.9973,4.9999,4.9991,5.0008,5.0006,5.0009,4.9913,4.99,5.0014,5.0014,5.0013,5.0013,5.0013,5.0013,4.9667,4.9727,4.9729,4.9797,4.981,4.9857,4.9873,4.9895,4.9912,4.9965,4.9996,5.0002,5.0018,5.0053,5.0084,5.0085,5.0099,5.0119,5.0117,5.0028,5.0015,5.0003,4.9991,5.0122,5.0122,5.021,5.021,5.0211]}]]